Weather Roundup
Issued by NWS Springfield, MO

Home | Current Version | Previous Version | Text Only | Print | Product List | Glossary On
Versions: 1 2 3 4 5 6 7 8 9 10 11 12 13 14 15 16 17 18 19 20 21 22 23 24 25 26 27 28 29 30 31 32 33 34 35 36 37 38 39 40 41 42 43 44 45 46 47 48 49 50
000
NZUS99 KSGF 061107
HRRSGF

HOURLY WEATHER
NATIONAL WEATHER SERVICE SPRINGFIELD MO
600 AM CDT FRI MAY 06 2016

......SGF CWA......

CITY           SKY/WX    TMP DP  RH WIND       PRES   REMARKS
SPRINGFIELD    CLEAR     46  37  71 S5        30.09R
JOPLIN         CLEAR     47  40  76 CALM      30.08R
WEST PLAINS    CLEAR     46  38  73 W6        30.10R
ROLLA          CLEAR     44  38  79 SW6       30.07R
OSAGE BEACH    CLEAR     39  30  70 CALM      30.09S

......SURROUNDING SGF CWA......

CITY           SKY/WX    TMP DP  RH WIND       PRES   REMARKS
CHANUTE        CLEAR     48  45  89 E6        30.07R
PARSONS        CLEAR     46  45  96 CALM      30.08R
COFFEYVILLE    CLEAR     48  46  93 E3        30.07S
EMPORIA        CLEAR     48  45  89 SE5       30.06R
GROVE OK       CLEAR     46  45  93 CALM      30.09R
ROGERS AR      CLEAR     47  44  90 CALM      30.10R
SILOAM SPRINGS CLEAR     46  37  71 E5        30.09R
HARRISON AR    CLEAR     41  36  82 S3        30.09S
NEAR YELLVILLE CLEAR    N/A N/A N/A CALM      30.07S

......KANSAS AND MISSOURI......

CITY           SKY/WX    TMP DP  RH WIND       PRES   REMARKS
KANSAS CTY INT PTCLDY    49  40  71 S6        30.06R
DOWNTOWN KC    CLEAR     52  47  83 CALM      30.06R
COLUMBIA       CLEAR     48  38  68 SW6       30.07R
SEDALIA        CLEAR     50  38  63 SW8       30.08R
ST JOSEPH      CLEAR     49  46  90 S3        30.05R
ST LOUIS       CLEAR     49  41  74 W3        30.05S
SPIRIT OF STL  CLEAR     43  42  97 W3        30.05R
KIRKSVILLE     CLEAR     50  35  56 SW7       30.05R
WICHITA        CLEAR     50  43  77 CALM      30.05S
TOPEKA         CLEAR     50  47  89 CALM      30.05S
OLATHE         CLEAR     50  41  71 S3        30.07R

......TENNESSEE......

CITY           SKY/WX    TMP DP  RH WIND       PRES   REMARKS
MEMPHIS        PTCLDY    50  44  80 CALM      30.06S
NASHVILLE      PTCLDY    47  43  86 W5        29.99R

......ARKANSAS.......

CITY           SKY/WX    TMP DP  RH WIND       PRES   REMARKS
FAYETTEVILLE   CLEAR     41  41 100 CALM      30.09S
FT SMITH       CLEAR     50  45  83 E6        30.08R
LITTLE ROCK    CLEAR     51  46  83 CALM      30.09R

......OKLAHOMA.......

CITY           SKY/WX    TMP DP  RH WIND       PRES   REMARKS
TULSA          PTCLDY    49  47  93 CALM      30.05R
PONCA CITY     CLEAR     47  44  90 CALM      30.06R
MCALESTER      CLEAR     48  45  89 NE3       30.06R
OKLAHOMA CITY  CLOUDY    51  46  83 S5        30.07R

......IOWA............

CITY           SKY/WX    TMP DP  RH WIND       PRES   REMARKS
DES MOINES     CLEAR     52  41  66 SW6       30.00R
QUAD CITIES    CLEAR     43  39  86 CALM      29.99R

......ILLINOIS........

CITY           SKY/WX    TMP DP  RH WIND       PRES   REMARKS
QUINCY         CLEAR     45  41  86 SW6       30.03S
CHICAGO        MOCLDY    49  42  77 W7        29.96S



USA.gov is the U.S. government's official web portal to all federal, state and local government web resources and services.